Location: Ellerstadt
(49.4644°N, 8.2615°E)
Time: 14:30:58
(UTC+00:00)

Transit 2A Rocket - All Passes

Search period start: 22 June 2021 00:00
Search period end: 02 July 2021 00:00
Orbit: 592 x 911 km, 66.7° (Epoch: 21 June)

Date Brightness Start Highest point End Pass type
(mag) Time Alt. Az. Time Alt. Az. Time Alt. Az.
22 Jun - 00:12:42 10° SW 00:16:57 59° NW 00:21:26 10° NNE visible
22 Jun - 01:57:47 10° WNW 02:00:31 16° NNW 02:03:21 10° NNE visible
22 Jun - 05:26:43 10° NNW 05:29:49 17° NNE 05:33:04 10° ENE daylight
22 Jun - 07:08:32 10° NNW 07:13:24 54° NE 07:18:44 10° SE daylight
22 Jun - 08:51:24 10° NW 08:55:48 30° WSW 09:00:32 10° S daylight
22 Jun - 21:51:34 10° ESE 21:52:38 11° ESE 21:53:43 10° E visible
22 Jun - 23:30:00 10° SSW 23:34:18 83° ESE 23:38:49 10° NE visible
23 Jun - 01:14:07 10° W 01:17:27 21° NNW 01:20:58 10° NNE visible
23 Jun - 04:44:23 10° N 04:46:42 13° NNE 04:49:06 10° NE daylight
23 Jun - 06:26:02 10° NNW 06:30:37 37° NE 06:35:36 10° ESE daylight
23 Jun - 08:08:28 10° NW 08:13:19 47° WSW 08:18:36 10° S daylight
23 Jun - 22:47:38 10° SSW 22:51:45 48° ESE 22:56:04 10° NE visible
24 Jun - 00:30:41 10° W 00:34:30 29° NW 00:38:32 10° NNE visible
24 Jun - 02:17:12 10° NNW 02:18:40 11° NNW 02:20:09 10° N visible
24 Jun - 04:02:03 10° N 04:03:29 11° NNE 04:04:57 10° NNE daylight
24 Jun - 05:43:35 10° NNW 05:47:44 26° NE 05:52:11 10° E daylight
24 Jun - 07:25:43 10° NW 07:30:46 75° WSW 07:36:17 10° SSE daylight
24 Jun - 09:10:10 10° WNW 09:12:39 13° WSW 09:15:12 10° SW daylight
24 Jun - 22:05:41 10° S 22:09:20 27° ESE 22:13:06 10° NE visible
24 Jun - 23:47:30 10° WSW 23:51:39 43° NW 23:56:02 10° NNE visible
25 Jun - 01:33:10 10° NW 01:35:28 14° NNW 01:37:50 10° N visible
25 Jun - 03:20:02 10° N 03:20:14 10° N 03:20:25 10° N daylight
25 Jun - 05:01:10 10° NNW 05:04:45 20° NNE 05:08:33 10° ENE daylight
25 Jun - 06:43:06 10° NNW 06:48:07 72° NE 06:53:37 10° SE daylight
25 Jun - 08:26:23 10° WNW 08:30:19 22° WSW 08:34:30 10° SSW daylight
25 Jun - 21:24:22 10° SE 21:27:00 16° ESE 21:29:42 10° ENE visible
25 Jun - 23:04:37 10° SW 23:08:56 71° NW 23:13:29 10° NNE visible
26 Jun - 00:49:21 10° WNW 00:52:21 17° NNW 00:55:29 10° NNE visible
26 Jun - 04:18:47 10° NNW 04:21:40 15° NNE 04:24:41 10° ENE daylight
26 Jun - 06:00:33 10° NNW 06:05:23 47° NE 06:10:39 10° ESE daylight
26 Jun - 07:43:15 10° NW 07:47:53 35° WSW 07:52:54 10° S daylight
26 Jun - 22:22:02 10° SSW 22:26:18 69° ESE 22:30:48 10° NE visible
27 Jun - 00:05:46 10° W 00:09:20 23° NW 00:13:05 10° NNE visible
27 Jun - 01:52:46 10° NNW 01:53:41 10° N 01:54:38 10° N visible
27 Jun - 03:36:24 10° N 03:38:31 13° NNE 03:40:41 10° NE daylight
27 Jun - 05:18:04 10° NNW 05:22:34 33° NE 05:27:25 10° ESE daylight
27 Jun - 07:00:24 10° NW 07:05:23 56° WSW 07:10:50 10° SSE daylight
27 Jun - 21:39:48 10° S 21:43:49 39° ESE 21:48:01 10° NE visible
27 Jun - 23:22:26 10° WSW 23:26:24 33° NW 23:30:36 10° NNE visible
28 Jun - 01:08:37 10° NW 01:10:28 12° NNW 01:12:21 10° N visible
28 Jun - 02:54:04 10° N 02:55:17 11° N 02:56:31 10° NNE daylight
28 Jun - 04:35:38 10° NNW 04:39:38 24° NE 04:43:56 10° E daylight
28 Jun - 06:17:42 10° NW 06:22:48 87° SW 06:28:22 10° SSE daylight
28 Jun - 08:01:35 10° WNW 08:04:47 16° WSW 08:08:08 10° SW daylight
28 Jun - 20:58:02 10° SSE 21:01:25 23° ESE 21:04:56 10° ENE visible
28 Jun - 22:39:22 10° SW 22:43:36 51° NW 22:48:06 10° NNE visible
29 Jun - 00:24:41 10° WNW 00:27:18 15° NNW 00:30:00 10° NNE visible
29 Jun - 03:53:13 10° NNW 03:56:37 18° NNE 04:00:12 10° ENE daylight
29 Jun - 05:35:06 10° NNW 05:40:07 62° NE 05:45:36 10° SE daylight
29 Jun - 07:18:09 10° WNW 07:22:26 26° WSW 07:27:00 10° SSW daylight
29 Jun - 20:17:08 10° SE 20:19:09 13° ESE 20:21:11 10° ENE visible
29 Jun - 21:56:35 10° SW 22:00:55 85° NW 22:05:30 10° NE visible
29 Jun - 23:40:57 10° WNW 23:44:12 19° NNW 23:47:36 10° NNE visible
30 Jun - 01:28:19 10° N 01:28:44 10° N 01:29:10 10° N visible
30 Jun - 03:10:49 10° N 03:13:30 14° NNE 03:16:18 10° NE daylight
30 Jun - 04:52:35 10° NNW 04:57:21 41° NE 05:02:32 10° ESE daylight
30 Jun - 06:35:08 10° NW 06:39:58 42° WSW 06:45:13 10° S daylight
30 Jun - 21:14:07 10° SSW 21:18:20 56° ESE 21:22:47 10° NE visible
30 Jun - 22:57:28 10° W 23:01:13 26° NW 23:05:11 10° NNE visible
01 Jul - 00:44:06 10° NNW 00:45:29 11° NNW 00:46:53 10° N visible
01 Jul - 02:28:26 10° N 02:30:19 12° NNE 02:32:15 10° NE visible
01 Jul - 04:10:06 10° NNW 04:14:29 29° NE 04:19:12 10° E daylight
01 Jul - 05:52:20 10° NW 05:57:26 66° WSW 06:02:59 10° SSE daylight
01 Jul - 07:37:23 10° W 07:39:13 12° WSW 07:41:06 10° SW daylight
01 Jul - 20:32:02 10° S 20:35:53 32° ESE 20:39:54 10° NE visible
01 Jul - 22:14:14 10° WSW 22:18:19 39° NW 22:22:41 10° NNE visible
